Date,TemperatureHighF,TemperatureAvgF,TemperatureLowF,DewpointHighF,DewpointAvgF,DewpointLowF,HumidityHigh,HumidityAvg,HumidityLow,PressureMaxIn,PressureMinIn,WindSpeedMaxMPH,WindSpeedAvgMPH,GustSpeedMaxMPH,PrecipitationSumIn
2013-1-1,60.5,51.3,42.2,60.2,49.0,39.2,99,92,76,30.27,29.98,4,2,7,0.13
2013-1-2,45.3,41.0,36.0,38.9,33.5,31.1,88,75,62,30.37,30.26,4,2,7,0.00
2013-1-3,46.4,41.7,37.1,35.5,32.9,30.9,84,71,59,30.50,30.36,4,1,6,0.00
2013-1-4,43.4,40.5,37.9,40.4,38.0,33.8,96,91,69,30.56,30.43,4,1,8,0.19
2013-1-5,57.1,44.7,37.2,47.0,41.2,35.6,96,88,67,30.44,30.27,2,0,3,0.00
2013-1-6,60.6,45.8,35.6,37.9,35.6,32.5,97,71,38,30.44,30.32,4,1,6,0.01
2013-1-7,57.0,46.7,37.2,45.7,38.1,31.3,85,72,55,30.38,30.09,2,1,4,0.00
2013-1-8,56.6,52.0,48.1,56.2,51.3,46.1,99,98,84,30.09,29.87,4,1,7,0.53
2013-1-9,65.5,57.9,49.7,60.0,56.4,48.9,99,95,82,30.06,29.88,5,2,7,1.75
2013-1-10,69.3,54.0,44.9,51.6,47.1,42.7,99,80,47,30.09,30.01,8,2,13,0.00
2013-1-11,70.5,58.2,43.3,67.1,55.7,41.8,99,92,76,30.07,29.85,4,1,7,0.00
2013-1-12,73.8,67.8,53.1,69.3,64.0,43.2,99,88,62,29.87,29.67,6,1,9,0.00
2013-1-13,55.4,47.2,39.8,43.0,34.3,29.5,69,61,46,30.20,29.85,6,3,11,0.00
2013-1-14,52.7,42.3,36.0,37.0,31.2,25.5,74,65,54,30.28,30.14,6,3,10,0.00
2013-1-15,42.5,38.3,35.9,37.1,34.1,26.8,95,85,69,30.31,30.14,5,2,11,0.01
2013-1-16,54.2,40.3,30.6,27.0,22.7,15.6,74,52,22,30.42,30.25,7,2,10,0.00
2013-1-17,66.9,50.4,35.5,39.5,34.5,24.7,74,56,33,30.53,30.36,4,1,7,0.00
2013-1-18,66.5,50.0,39.6,40.0,36.8,33.6,82,63,35,30.56,30.36,2,0,4,0.00
2013-1-19,69.5,50.8,37.0,50.1,43.1,35.6,98,78,43,30.37,30.20,4,1,7,0.00
2013-1-20,71.0,54.3,41.6,57.1,48.3,40.3,99,82,49,30.30,30.14,3,1,5,0.00
2013-1-21,75.4,57.2,45.4,59.0,50.5,44.1,99,81,49,30.27,30.17,2,0,4,0.00
2013-1-22,73.6,58.3,49.0,55.6,49.3,44.1,89,73,50,30.34,30.22,2,1,4,0.00
2013-1-23,76.7,59.6,45.9,60.7,54.2,44.8,98,84,56,30.38,30.23,3,1,4,0.00
2013-1-24,80.3,65.1,59.0,65.6,61.1,57.9,98,88,57,30.29,30.13,4,1,6,0.00
2013-1-25,79.5,67.6,59.9,65.1,62.6,59.0,98,85,61,30.18,30.04,3,1,6,0.00
2013-1-26,71.7,62.1,55.4,63.4,58.4,53.9,97,88,72,30.18,30.05,2,1,6,0.00
2013-1-27,78.2,68.0,59.8,67.8,64.1,58.8,98,88,68,30.12,29.97,3,1,5,0.00
2013-1-28,75.2,71.3,68.7,68.8,67.7,66.8,95,89,77,30.06,29.88,2,1,4,0.00
2013-1-29,85.6,71.3,58.0,69.4,58.9,28.0,94,69,31,29.88,29.51,9,2,12,0.00
2013-1-30,59.9,50.8,35.9,29.7,22.8,13.0,63,35,16,30.28,29.83,10,3,14,0.00
2013-1-31,67.6,48.5,32.8,34.2,25.6,20.5,72,45,18,30.37,30.23,5,1,8,0.00
2013-2-1,73.5,56.8,42.3,48.2,40.6,34.7,90,58,30,30.38,30.21,3,1,4,0.00
2013-2-2,77.4,58.4,43.3,58.1,49.6,40.7,97,75,45,30.31,30.19,3,1,5,0.00
2013-2-3,73.2,61.2,51.0,55.2,46.4,39.4,85,60,39,30.36,30.05,3,1,5,0.00
2013-2-4,78.0,63.6,54.7,62.6,58.1,52.2,96,84,54,30.05,29.82,3,1,8,0.01
2013-2-5,82.7,65.3,51.5,56.0,48.2,38.5,98,61,22,30.01,29.89,2,0,4,0.00
2013-2-6,77.8,65.1,59.0,63.5,59.6,53.0,95,83,58,30.00,29.85,2,0,5,0.02
2013-2-7,80.7,66.6,59.2,65.2,58.9,44.6,98,78,45,30.07,29.88,4,1,8,0.00
2013-2-8,72.2,59.9,48.7,50.1,40.4,33.6,78,51,25,30.24,30.08,5,2,12,0.00
2013-2-9,68.2,59.6,50.4,67.8,56.8,39.0,99,91,57,30.11,29.82,2,1,3,0.03
2013-2-10,69.0,64.5,57.9,67.8,48.3,33.4,99,61,28,30.03,29.78,4,1,9,0.06
2013-2-11,60.2,55.8,51.6,51.1,47.2,40.7,96,74,54,30.08,29.97,3,2,8,0.01
2013-2-12,73.6,60.2,51.4,57.4,46.0,26.8,98,67,24,30.08,29.85,6,2,10,0.02
2013-2-13,66.6,53.2,41.1,37.9,34.6,31.1,76,52,27,30.19,30.05,5,2,11,0.00
2013-2-14,72.0,52.2,36.0,43.8,38.8,33.2,95,64,33,30.19,30.04,4,1,4,0.00
2013-2-15,68.2,52.7,40.7,47.4,39.6,26.5,94,64,33,30.42,30.11,5,2,7,0.00
2013-2-16,67.5,48.5,30.4,32.9,28.8,24.5,79,49,25,30.51,30.27,4,1,8,0.00
2013-2-17,72.2,54.9,36.1,54.4,40.9,30.5,81,61,38,30.27,30.02,3,1,9,0.00
2013-2-18,81.8,67.6,59.7,62.5,50.5,27.5,89,60,23,30.08,29.86,4,2,9,0.00
2013-2-19,69.8,58.4,46.5,36.3,33.8,30.2,62,41,25,30.27,30.08,3,2,7,0.00
2013-2-20,68.6,59.9,53.6,66.3,53.3,29.9,97,81,34,30.14,29.68,2,1,4,0.02
2013-2-21,79.4,68.5,54.9,67.8,45.3,20.9,96,53,13,29.87,29.60,7,2,12,0.00
2013-2-22,66.8,55.6,48.7,41.7,36.4,26.9,71,50,33,30.04,29.86,5,2,8,0.00
2013-2-23,77.4,56.6,42.2,43.1,37.4,31.0,67,51,26,30.09,29.89,4,1,6,0.00
2013-2-24,70.6,57.6,40.5,60.2,50.3,36.9,94,78,61,29.95,29.63,3,1,6,0.00
2013-2-25,63.7,57.5,47.2,61.5,37.0,17.0,98,52,18,29.91,29.60,13,6,24,0.00
2013-2-26,68.3,52.9,39.8,32.7,29.6,26.6,64,43,23,30.01,29.89,6,2,11,0.00
2013-2-27,65.8,55.7,45.8,36.9,30.7,24.8,62,40,24,30.27,29.91,7,2,12,0.00
2013-2-28,63.2,50.1,41.8,31.9,28.2,23.4,58,44,23,30.38,30.23,5,2,12,0.00
2013-3-1,71.3,53.1,32.6,31.1,24.9,9.9,76,39,11,30.34,30.15,6,1,18,0.00
2013-3-2,66.7,51.5,37.9,33.1,29.6,26.8,66,45,25,30.47,30.30,7,2,11,0.00
2013-3-3,78.1,56.5,35.5,45.3,35.5,28.0,76,50,21,30.32,29.99,5,1,8,0.00
2013-3-4,89.5,66.1,47.9,54.4,48.3,43.3,93,59,22,29.99,29.74,4,1,7,0.00
2013-3-5,68.3,57.2,44.1,56.5,30.2,14.7,97,43,15,30.39,29.80,9,4,18,0.00
2013-3-6,66.6,50.2,38.6,27.9,21.3,16.0,55,34,16,30.48,30.26,4,1,8,0.00
2013-3-7,75.7,57.4,39.4,56.6,46.9,27.3,86,69,44,30.28,30.12,3,1,8,0.00
2013-3-8,68.3,63.7,59.9,65.8,60.7,55.0,97,90,80,30.16,30.01,3,1,5,0.03
2013-3-9,76.8,67.5,62.6,69.3,64.9,60.6,98,92,76,30.04,29.65,3,1,7,0.07
2013-3-10,67.8,61.1,48.5,64.9,44.0,34.4,98,57,31,30.16,29.65,8,3,12,0.64
2013-3-11,71.1,53.4,41.3,38.4,31.4,24.9,76,47,21,30.23,30.03,6,2,12,0.00
2013-3-12,82.0,58.0,37.8,43.7,35.2,30.2,77,48,16,30.25,30.10,5,1,7,0.00
2013-3-13,79.6,65.1,48.3,49.3,42.8,38.9,85,48,25,30.46,30.25,3,1,4,0.00
2013-3-14,80.8,62.7,45.0,56.3,48.1,38.8,92,63,31,30.41,30.24,3,1,9,0.00
2013-3-15,83.1,65.9,49.4,58.5,51.8,43.8,98,67,27,30.28,30.01,3,1,6,0.00
2013-3-16,87.3,68.6,53.0,63.4,57.7,51.6,99,73,32,30.03,29.75,4,1,8,0.00
2013-3-17,87.1,72.8,65.5,66.5,63.2,60.4,90,74,43,29.83,29.65,2,1,6,0.00
2013-3-18,95.1,77.7,62.2,67.4,52.0,29.7,98,53,10,29.93,29.72,5,2,12,0.00
2013-3-19,83.8,69.2,54.8,67.6,57.8,46.6,79,67,53,30.00,29.82,3,1,6,0.00
2013-3-20,74.9,64.3,57.4,63.4,49.5,39.2,85,61,31,30.23,29.96,6,2,9,0.00
2013-3-21,76.1,65.5,53.8,62.1,55.2,43.6,88,70,57,30.04,29.64,4,1,9,0.00
2013-3-22,89.9,73.8,65.8,68.5,65.1,55.8,98,77,41,29.74,29.62,3,1,7,0.00
2013-3-23,84.9,67.5,56.6,66.5,58.2,52.3,91,73,51,29.78,29.58,4,1,7,0.00
2013-3-24,67.7,55.4,43.8,60.2,35.2,21.7,92,51,22,30.19,29.71,10,5,17,0.00
2013-3-25,63.7,48.4,37.2,29.1,22.8,14.8,71,41,17,30.43,30.18,3,1,7,0.00
2013-3-26,68.6,51.4,36.7,29.3,24.5,18.4,59,38,15,30.54,30.32,2,1,5,0.00
2013-3-27,69.7,55.3,37.4,51.0,41.6,29.3,83,61,45,30.36,30.19,3,1,5,0.00
2013-3-28,70.4,64.1,57.7,60.9,57.3,51.0,88,79,70,30.23,30.14,2,1,5,0.00
2013-3-29,79.8,68.2,57.1,62.4,59.5,55.9,97,76,51,30.19,30.05,3,1,7,0.00
2013-3-30,86.0,72.2,65.0,66.8,63.6,61.7,92,76,48,30.12,29.90,3,1,5,0.00
2013-3-31,83.9,69.7,62.5,67.6,64.4,60.3,95,84,55,29.97,29.83,8,1,9,0.03
2013-4-1,89.7,73.0,61.2,68.5,64.1,59.9,97,77,43,30.06,29.88,3,1,6,0.00
2013-4-2,79.8,70.3,59.2,68.0,65.1,57.8,96,84,67,30.04,29.80,9,1,9,0.83
2013-4-3,58.9,54.5,50.1,57.6,52.6,46.7,98,93,88,30.16,29.77,6,3,13,0.31
2013-4-4,67.9,54.9,46.6,49.1,45.9,42.7,92,73,48,30.26,30.12,6,2,11,0.00
2013-4-5,75.3,56.2,40.0,52.7,46.4,38.7,97,73,42,30.32,30.09,2,0,5,0.00
2013-4-6,83.1,66.2,50.0,62.2,56.4,47.7,95,73,46,30.11,29.86,3,1,5,0.00
2013-4-7,87.3,70.3,59.8,68.5,63.0,57.7,95,80,51,29.93,29.76,3,1,8,0.00
2013-4-8,75.3,70.4,67.1,69.0,66.4,63.0,94,87,80,29.84,29.67,2,1,5,0.00
2013-4-9,90.4,76.6,69.8,73.5,69.5,66.7,94,80,55,29.73,29.56,3,1,6,0.00
2013-4-10,74.6,60.6,47.1,70.4,55.1,44.7,96,82,67,29.94,29.63,8,3,13,0.25
2013-4-11,73.5,60.6,48.5,47.3,44.0,37.6,81,57,37,30.00,29.82,6,1,11,0.02
2013-4-12,84.4,63.0,44.3,54.5,46.8,41.9,93,61,27,30.04,29.86,2,0,4,0.00
2013-4-13,78.9,65.8,50.9,61.7,54.6,46.2,97,70,45,29.98,29.77,2,0,5,0.00
2013-4-14,90.4,71.4,56.7,70.2,63.0,54.3,96,77,46,29.84,29.62,3,1,5,0.00
2013-4-15,93.1,78.0,68.8,70.8,67.7,63.4,94,73,43,29.81,29.68,2,1,5,0.00
2013-4-16,87.0,76.0,65.4,73.1,68.7,63.4,95,79,59,29.88,29.77,3,1,6,0.00
2013-4-17,81.6,75.8,72.7,73.4,72.1,70.8,97,89,73,29.87,29.66,3,1,6,0.00
2013-4-18,75.8,67.4,52.7,72.7,64.4,49.3,95,90,74,29.89,29.64,8,3,17,0.26
2013-4-20,77.0,68.2,56.9,49.2,38.8,32.1,74,37,20,30.27,30.01,2,2,6,0.00
2013-4-21,83.4,66.4,51.9,60.3,54.8,47.8,88,69,44,30.16,30.00,2,1,5,0.00
2013-4-22,86.3,71.2,59.0,65.6,61.5,57.3,96,74,46,30.12,29.87,3,1,6,0.00
2013-4-23,80.7,68.9,55.3,69.6,61.9,46.1,91,79,61,30.07,29.85,5,2,11,0.00
2013-4-24,63.2,56.6,47.3,45.6,41.0,37.4,78,57,44,30.28,30.07,7,3,10,0.00
2013-4-25,70.7,62.0,56.6,52.6,46.5,42.1,69,57,43,30.35,30.20,3,1,8,0.00
2013-4-26,80.0,69.1,59.5,71.4,64.6,51.8,98,86,68,30.22,30.03,2,0,5,0.01
2013-4-27,83.9,73.1,66.2,71.7,68.8,65.3,97,87,62,30.09,29.92,4,0,5,1.24
2013-4-28,86.0,71.3,59.8,68.7,64.7,59.2,100,82,53,30.02,29.86,2,0,4,0.01
2013-4-29,88.5,73.2,66.5,69.3,66.7,63.4,98,83,46,29.94,29.76,3,1,5,0.27
2013-4-30,66.7,66.3,66.0,66.1,65.6,65.1,98,98,97,29.85,29.80,1,0,1,0.00
2013-5-1,89.8,82.7,76.0,72.6,70.3,68.8,80,67,55,29.92,29.78,1,0,3,0.00
2013-5-2,76.2,57.7,49.9,69.7,51.1,38.2,97,79,62,30.37,29.83,10,6,18,0.55
2013-5-3,69.2,55.8,45.7,39.8,35.1,31.0,74,49,26,30.39,30.12,7,3,12,0.00
2013-5-4,84.3,62.5,43.9,46.1,40.0,32.6,80,49,16,30.13,29.91,3,1,6,0.00
2013-5-5,81.8,65.1,51.9,50.3,45.4,39.9,78,52,27,30.16,30.00,4,1,7,0.00
2013-5-6,77.5,63.8,49.7,56.6,51.4,46.2,90,66,45,30.17,30.01,2,0,3,0.00
2013-5-7,87.5,69.1,51.6,61.6,55.7,50.1,98,67,32,30.11,29.93,2,1,6,0.00
2013-5-8,86.3,72.9,63.3,69.0,64.7,59.8,93,77,52,30.02,29.87,2,1,4,0.00
2013-5-9,81.2,73.6,63.1,74.0,69.3,60.5,95,86,78,29.99,29.82,8,1,20,0.03
2013-5-10,87.4,71.1,61.1,70.6,65.0,60.2,99,83,54,30.02,29.83,10,1,25,0.27
2013-5-11,82.5,71.8,63.5,64.6,60.9,54.9,93,71,48,30.16,30.00,5,2,8,0.00
2013-5-12,82.6,69.8,57.3,58.7,54.2,50.4,83,59,38,30.25,30.11,3,1,4,0.00
2013-5-13,87.4,71.0,53.3,61.7,55.5,48.5,88,60,34,30.28,30.15,2,0,4,0.00
2013-5-14,87.5,73.3,59.1,68.7,63.7,56.8,95,74,51,30.23,30.00,3,1,6,0.00
2013-5-15,90.1,76.7,70.4,73.8,70.7,67.9,96,83,57,30.10,29.82,4,1,8,0.00
2013-5-16,90.5,77.5,72.6,75.2,71.4,69.7,91,82,62,29.86,29.78,2,1,4,0.00
2013-5-17,98.3,87.0,75.1,78.1,74.3,69.8,86,68,47,29.89,29.77,2,1,6,0.00
2013-5-18,96.0,82.0,72.3,74.3,70.6,66.4,95,71,46,29.91,29.80,3,1,10,0.00
2013-5-19,94.0,81.7,72.9,75.4,71.8,66.9,91,73,53,29.85,29.70,3,1,7,0.00
2013-5-20,95.0,81.5,71.8,75.1,72.2,69.4,96,76,51,29.84,29.68,3,1,6,0.00
2013-5-21,91.5,81.0,73.3,75.9,72.8,64.4,95,77,60,29.85,29.68,4,1,5,0.00
2013-5-22,93.8,78.8,63.2,76.6,66.7,57.9,85,67,55,29.92,29.78,3,1,5,0.00
2013-5-23,94.6,81.9,74.6,75.9,73.1,71.6,92,76,52,30.01,29.83,2,1,5,0.00
2013-5-24,78.7,73.5,68.8,74.3,71.4,67.0,99,93,77,30.10,29.99,3,0,7,0.73
2013-5-25,82.8,73.4,68.8,74.0,71.2,68.5,100,93,70,30.16,30.01,3,1,4,2.27
2013-5-26,86.0,76.3,71.0,77.1,72.7,69.0,98,89,73,30.09,29.97,2,0,4,0.18
2013-5-27,90.5,78.5,70.4,77.0,72.6,69.2,97,83,61,30.04,29.84,2,1,6,0.00
2013-5-28,89.9,79.8,73.4,75.7,72.6,70.7,92,80,61,29.92,29.75,3,2,7,0.00
2013-5-29,85.8,78.5,73.8,76.5,73.3,71.3,94,84,70,29.89,29.70,3,2,5,0.00
2013-5-30,90.7,81.1,74.9,77.3,74.3,72.4,93,81,61,29.84,29.75,2,1,5,0.00
2013-5-31,94.7,82.7,74.9,78.9,75.5,73.0,95,80,57,29.88,29.74,2,1,6,0.00
2013-6-1,98.5,84.3,76.4,78.7,75.3,73.4,93,76,50,29.90,29.78,3,1,5,0.00
2013-6-2,90.7,77.3,66.2,75.3,68.4,63.4,98,77,41,30.04,29.88,4,1,8,1.09
2013-6-3,93.9,77.6,63.9,73.9,67.7,62.4,99,75,45,29.99,29.83,2,0,5,0.00
2013-6-4,95.1,80.4,69.0,74.2,70.5,65.9,98,75,41,29.91,29.79,2,0,4,0.00
2013-6-5,95.5,80.8,67.4,73.7,70.4,66.2,98,73,45,29.89,29.73,2,1,4,0.00
2013-6-6,95.5,81.2,69.2,73.4,70.8,68.0,98,73,44,29.92,29.75,3,1,7,0.00
2013-6-7,80.6,73.9,68.7,71.3,67.4,64.4,95,80,70,30.00,29.87,4,1,6,0.00
2013-6-8,92.3,77.5,62.9,75.2,68.7,59.6,91,75,56,29.93,29.78,2,1,4,0.00
2013-6-9,91.1,79.8,74.0,79.0,74.4,70.1,96,84,63,29.96,29.83,3,0,5,0.74
2013-6-10,95.8,82.2,70.7,77.3,73.3,69.8,97,77,49,29.99,29.90,2,0,5,0.00
2013-6-11,94.9,79.3,72.7,75.8,73.4,67.3,97,84,54,30.03,29.96,5,0,10,0.05
2013-6-12,94.7,77.4,71.6,78.3,74.3,71.0,99,91,56,30.05,29.94,3,0,4,0.03
2013-6-13,76.4,75.5,74.4,75.8,74.9,73.5,98,98,97,30.02,30.00,1,0,1,0.00
2013-6-16,83.5,83.5,83.5,75.1,75.1,75.1,76,76,76,30.01,30.01,1,1,1,0.00
2013-6-17,97.7,90.2,81.0,77.1,74.7,70.6,81,62,47,29.99,29.84,2,1,4,0.00
2013-6-18,97.6,84.4,75.9,74.8,73.1,68.6,94,71,40,30.00,29.86,2,0,4,0.00
2013-6-19,98.2,85.2,75.6,76.0,73.2,67.4,95,70,38,29.98,29.88,2,1,6,0.00
2013-6-20,97.1,84.2,73.9,75.7,73.0,69.0,94,71,46,30.05,29.93,3,1,7,0.00
2013-6-21,96.8,84.8,76.8,75.8,72.4,63.8,94,70,39,30.07,29.95,3,1,5,0.00
2013-6-22,98.0,84.6,75.0,75.1,72.2,66.0,95,70,41,30.04,29.88,3,1,6,0.00
2013-6-23,95.2,83.8,76.1,75.0,71.7,64.3,94,70,40,29.98,29.88,3,1,6,0.00
2013-6-24,98.3,84.5,76.5,76.3,73.3,69.8,92,72,45,30.02,29.88,3,1,8,0.00
2013-6-25,100.0,86.1,76.6,75.1,72.8,68.9,91,68,38,30.00,29.85,3,1,7,0.00
2013-6-26,101.3,86.5,76.6,76.3,73.8,69.8,91,69,39,29.97,29.85,2,1,8,0.00
2013-6-27,102.7,86.4,75.1,75.0,70.3,61.7,91,64,27,30.01,29.89,2,1,5,0.00
2013-6-28,104.4,87.4,75.1,74.4,70.5,64.5,94,62,28,29.99,29.80,3,1,4,0.00
2013-6-29,108.8,90.6,73.9,73.6,68.3,61.4,88,53,25,29.87,29.72,3,1,7,0.00
2013-6-30,87.3,79.3,69.7,75.0,69.2,64.2,97,73,47,29.98,29.79,6,1,10,0.27
2013-7-1,89.9,79.4,71.6,68.7,61.1,55.4,75,55,36,30.00,29.87,5,1,7,0.00
2013-7-2,93.9,78.1,67.7,62.8,57.1,50.9,72,52,26,30.08,29.95,3,1,6,0.00
2013-7-3,97.6,79.9,68.7,65.1,53.8,42.5,66,44,18,30.03,29.88,4,0,6,0.00
2013-7-4,98.3,82.1,65.5,70.5,63.8,56.8,94,59,26,29.99,29.86,2,0,4,0.00
2013-7-5,97.8,83.9,69.1,72.7,66.8,60.9,96,61,33,29.98,29.82,2,1,5,0.00
2013-7-6,98.1,83.4,70.0,73.9,69.2,63.0,96,67,33,29.94,29.80,2,1,4,0.00
2013-7-7,99.9,82.3,74.2,76.2,73.8,70.1,96,78,43,29.97,29.86,3,0,6,0.01
2013-7-8,89.6,79.8,74.9,76.4,73.9,69.6,97,83,61,30.12,29.97,3,0,4,0.00
2013-7-9,99.3,83.8,73.6,76.9,74.4,71.1,99,77,41,30.15,30.00,2,1,6,0.00
2013-7-10,99.6,89.0,75.8,75.6,73.1,70.0,94,62,40,30.07,29.91,2,1,4,0.00
2013-7-11,99.3,85.4,75.1,75.2,71.5,65.5,95,67,36,30.01,29.86,2,0,5,0.00
2013-7-12,101.6,86.0,74.3,75.2,70.8,62.1,96,65,30,29.96,29.86,2,0,4,0.00
2013-7-13,103.4,86.9,71.4,73.1,67.6,59.9,92,58,26,29.97,29.82,2,0,4,0.00
2013-7-14,100.5,82.9,73.5,74.5,70.0,66.2,88,67,34,29.89,29.82,4,1,7,0.00
2013-7-15,83.3,75.2,70.5,76.5,73.1,69.2,99,93,78,30.02,29.86,6,0,6,0.31
2013-7-16,84.7,74.7,71.7,79.3,73.8,70.2,99,97,79,30.12,30.00,3,0,3,1.33
2013-7-17,87.1,75.8,71.7,76.1,73.0,70.9,99,92,63,30.17,30.10,3,0,8,0.02
2013-7-18,93.6,79.9,71.7,76.8,72.8,70.1,98,81,50,30.16,29.99,2,1,4,0.00
2013-7-19,95.3,82.1,70.9,76.0,72.4,69.8,99,76,46,30.07,29.89,2,0,4,0.00
2013-7-20,96.6,82.5,72.0,75.4,72.3,68.5,98,74,43,30.00,29.83,2,0,4,0.00
2013-7-21,95.2,83.3,75.2,77.7,75.2,72.8,97,78,52,29.96,29.86,2,1,5,0.00
2013-7-22,97.7,85.8,77.9,78.4,75.9,71.7,94,75,45,29.99,29.87,2,1,7,0.00
2013-7-23,99.0,85.7,77.5,76.5,74.0,67.7,91,71,41,30.01,29.85,2,1,8,0.00
2013-7-24,98.3,85.3,76.6,76.8,74.4,70.2,93,72,44,30.00,29.85,2,0,3,0.00
2013-7-25,100.2,85.4,74.8,76.0,73.6,69.6,96,71,39,30.02,29.93,2,1,5,0.00
2013-7-26,99.8,85.4,74.6,79.2,74.5,71.2,96,72,42,30.03,29.86,2,0,3,0.00
2013-7-27,91.6,82.3,75.0,78.7,75.1,70.5,99,80,59,29.99,29.85,3,1,6,0.10
2013-7-28,98.4,84.5,74.8,77.9,73.5,69.9,87,72,46,29.94,29.83,2,1,7,0.00
2013-7-29,100.8,86.4,78.0,76.3,73.6,67.4,90,69,37,30.03,29.92,3,1,8,0.00
2013-7-30,102.3,86.6,77.9,76.1,73.1,65.6,89,68,32,30.08,29.94,2,1,5,0.00
2013-7-31,104.1,86.4,74.0,74.3,69.8,61.3,94,64,26,30.09,29.91,2,0,5,0.00
2013-8-1,103.7,87.9,74.8,75.8,71.7,68.5,95,62,34,30.03,29.88,2,1,6,0.00
2013-8-2,101.7,86.7,73.8,75.5,70.9,67.7,93,62,35,29.98,29.85,2,1,8,0.00
2013-8-3,101.4,86.9,76.5,74.9,72.8,68.6,92,66,37,30.02,29.90,3,1,6,0.00
2013-8-4,101.6,87.0,76.9,77.1,74.3,70.6,95,69,41,30.05,29.90,2,1,4,0.00
2013-8-5,102.6,87.1,73.9,76.0,72.3,66.4,93,65,34,30.03,29.85,2,1,7,0.00
2013-8-6,104.4,88.1,76.0,75.3,72.2,65.6,93,64,30,29.95,29.78,2,1,4,0.00
2013-8-7,104.6,88.1,77.4,76.3,72.5,63.8,91,64,29,29.92,29.77,3,1,5,0.00
2013-8-8,103.4,87.5,77.9,76.2,72.4,60.1,87,65,26,29.90,29.76,2,1,5,0.00
2013-8-9,104.0,86.6,74.1,75.8,69.7,60.7,96,63,26,29.96,29.83,2,0,4,0.00
2013-8-10,104.4,85.1,74.1,79.3,73.3,70.2,92,71,35,30.04,29.90,3,1,9,0.09
2013-8-11,100.9,82.6,74.2,76.4,74.1,69.6,98,79,39,30.07,29.94,4,0,12,0.02
2013-8-12,98.3,84.4,72.8,74.1,72.4,68.7,97,71,41,30.07,29.93,2,1,7,0.00
2013-8-13,101.6,86.8,76.1,75.7,72.5,67.0,94,66,36,30.04,29.87,3,1,6,0.00
2013-8-14,103.9,87.1,75.9,74.2,71.2,62.3,92,63,28,30.00,29.84,3,1,5,0.00
2013-8-15,101.2,84.6,74.4,74.4,70.7,65.6,91,66,33,30.00,29.87,5,1,10,0.00
2013-8-16,99.3,83.7,72.0,76.4,70.3,61.1,96,68,33,30.02,29.88,6,1,8,0.00
2013-8-17,97.9,82.9,71.5,73.5,67.0,58.6,92,63,32,30.03,29.90,3,1,6,0.00
2013-8-18,97.8,82.2,67.8,69.6,63.9,59.8,79,56,33,30.04,29.95,2,0,3,0.00
2013-8-19,97.3,82.0,68.2,69.5,65.6,61.9,89,61,35,30.06,29.91,2,0,4,0.00
2013-8-20,95.4,80.6,69.7,74.4,69.9,64.0,97,72,37,30.02,29.93,3,1,4,0.00
2013-8-21,99.1,82.4,73.0,75.8,72.1,69.3,92,73,40,30.07,29.97,3,1,5,0.00
2013-8-22,98.0,84.7,72.5,75.9,72.4,69.2,96,70,43,30.08,29.90,2,0,4,0.00
2013-8-23,100.1,85.4,73.1,75.6,71.4,65.6,95,66,37,30.02,29.88,2,0,5,0.00
2013-8-24,102.8,87.5,74.1,74.2,70.9,67.6,88,61,33,30.03,29.90,3,1,4,0.00
2013-8-25,98.3,85.0,74.0,74.5,71.1,68.5,85,65,40,30.07,29.96,3,1,8,0.00
2013-8-26,92.2,78.3,73.8,76.0,73.7,71.7,97,87,55,30.10,30.02,2,0,6,0.21
2013-8-27,93.6,80.1,73.2,77.1,73.6,71.4,98,83,52,30.11,30.02,2,0,5,0.00
2013-8-28,96.1,82.7,72.8,76.0,72.2,68.9,98,74,44,30.11,29.99,2,0,4,0.00
2013-8-29,101.3,83.9,72.2,75.2,71.0,67.1,97,69,35,30.09,29.94,2,0,4,0.00
2013-8-30,103.5,87.8,75.4,73.2,70.1,66.3,86,59,32,30.02,29.86,2,1,4,0.00
2013-8-31,102.4,86.4,72.9,73.4,71.1,68.7,92,63,36,29.94,29.80,2,1,4,0.00
2013-9-1,101.4,86.0,72.9,75.6,71.2,66.9,96,65,36,29.91,29.79,2,1,6,0.00
2013-9-2,101.8,86.1,74.3,75.5,71.5,66.7,97,66,33,29.97,29.81,2,1,4,0.00
2013-9-3,102.7,85.7,71.0,73.7,68.8,64.6,91,61,31,30.00,29.86,2,0,4,0.00
2013-9-4,102.8,86.2,77.9,72.9,71.7,69.4,80,64,36,30.05,29.92,2,1,5,0.00
2013-9-5,99.4,82.5,71.1,75.1,71.6,69.0,95,72,41,30.09,29.97,3,0,5,0.00
2013-9-6,98.3,83.0,72.2,75.2,72.1,68.5,96,72,39,30.09,29.93,2,0,4,0.00
2013-9-7,99.2,83.1,73.8,75.7,72.8,70.6,94,74,41,30.03,29.88,3,1,6,0.00
2013-9-8,90.0,78.1,73.3,77.4,73.6,69.8,97,87,60,29.98,29.88,3,0,5,0.60
2013-9-9,93.4,78.2,71.4,75.9,72.4,70.4,98,84,52,29.99,29.91,3,0,7,0.02
2013-9-10,93.3,77.6,71.9,76.2,73.2,70.8,98,88,53,30.06,29.97,3,0,6,0.42
2013-9-11,95.2,82.0,71.7,77.4,72.6,66.2,99,76,40,30.09,29.98,2,1,4,0.00
2013-9-12,96.7,81.6,71.4,75.6,70.9,64.3,98,74,37,30.06,29.90,2,0,5,0.00
2013-9-13,97.5,82.6,72.8,71.5,65.7,-99.9,93,62,33,29.98,29.80,3,-11,4,0.00
2013-9-14,96.5,80.8,68.4,74.0,69.3,66.2,96,72,39,29.94,29.83,3,1,6,0.17
2013-9-15,94.6,80.6,71.9,76.7,73.2,71.2,99,80,48,30.00,29.91,2,0,6,0.01
2013-9-16,87.9,76.7,71.6,78.9,73.6,70.2,98,91,69,30.05,29.94,3,0,5,0.18
2013-9-17,90.1,79.0,72.6,78.5,73.8,71.8,99,86,59,30.05,29.93,2,0,5,0.00
2013-9-18,93.9,79.8,73.3,76.8,74.1,71.8,98,85,49,30.01,29.88,2,0,4,0.05
2013-9-19,91.5,79.7,74.4,80.5,75.7,73.6,99,89,62,29.95,29.80,2,0,3,0.12
2013-9-20,80.3,75.7,71.2,79.0,74.6,69.8,99,97,93,29.87,29.75,5,1,8,0.78
2013-9-21,85.9,74.7,65.6,70.2,64.4,55.0,94,73,41,29.92,29.82,5,3,10,0.00
2013-9-22,87.4,72.1,60.8,58.5,53.9,49.9,75,55,29,29.91,29.78,3,1,6,0.00
2013-9-23,91.6,72.5,57.7,61.2,55.7,52.7,85,59,29,29.85,29.76,2,0,4,0.00
2013-9-24,97.4,78.3,63.4,65.3,61.1,57.8,85,59,30,29.94,29.82,3,0,5,0.00
2013-9-25,97.3,80.7,66.8,68.5,63.8,59.5,87,60,34,29.90,29.78,2,0,5,0.00
2013-9-26,93.1,79.0,67.1,75.2,68.8,59.3,97,73,43,29.90,29.80,2,1,5,0.00
2013-9-27,90.1,80.6,75.1,82.1,76.1,73.2,96,87,70,29.91,29.81,2,1,5,0.22
2013-9-28,91.4,80.1,75.4,80.2,77.1,74.7,98,91,64,29.97,29.85,2,0,5,0.38
2013-9-29,78.7,71.6,66.3,74.8,69.1,65.8,99,92,76,30.04,29.93,7,2,8,3.80
2013-9-30,90.6,73.5,60.6,66.8,63.7,60.0,100,75,41,29.97,29.81,2,0,3,0.01
2013-10-1,92.9,78.5,68.1,76.5,72.5,63.1,99,84,52,29.92,29.82,2,0,4,0.00
2013-10-2,92.2,81.3,75.3,76.8,74.4,71.1,98,81,55,29.95,29.84,2,1,4,0.11
2013-10-3,91.6,80.7,74.8,76.2,73.9,70.5,96,81,57,29.93,29.82,2,1,7,0.00
2013-10-4,91.9,80.0,71.8,74.8,72.6,71.1,99,80,54,29.92,29.82,2,1,8,0.00
2013-10-5,89.3,77.2,63.8,73.8,68.0,46.8,97,75,51,30.03,29.87,6,2,8,0.00
2013-10-6,79.8,65.2,53.6,55.8,49.6,42.5,97,62,27,30.16,30.01,7,2,12,0.37
2013-10-7,85.6,66.9,51.4,53.5,47.5,40.3,85,55,22,30.20,30.06,2,0,6,0.00
2013-10-8,85.4,67.3,52.4,56.1,51.8,48.3,88,61,31,30.11,29.99,2,0,3,0.00
2013-10-9,85.4,68.5,55.4,66.0,59.7,51.4,98,76,48,30.08,29.95,2,0,3,0.00
2013-10-10,85.9,74.5,63.2,70.8,66.8,61.7,97,78,57,30.04,29.88,2,0,4,0.00
2013-10-11,91.7,74.3,71.6,76.7,62.6,-99.9,94,78,58,29.93,29.82,2,-61,4,0.00
2013-10-12,92.5,45.1,76.5,76.9,-5.6,-99.9,96,41,56,30.00,29.89,2,-462,3,0.00
2013-10-13,72.6,45.6,66.5,72.3,9.3,-99.9,100,63,98,30.16,29.99,1,-361,4,0.34
2013-10-14,84.8,76.3,71.9,76.3,73.4,71.9,100,91,72,30.09,29.91,2,0,5,0.00
2013-10-15,86.5,75.8,63.6,74.2,71.0,60.0,97,86,62,29.99,29.86,4,0,6,0.00
2013-10-16,63.5,58.9,55.3,59.8,57.3,54.5,98,94,88,30.10,29.93,4,2,8,0.98
2013-10-17,74.8,62.1,53.1,59.4,54.3,50.3,97,78,50,30.16,30.00,3,1,4,0.00
2013-10-18,73.8,65.1,55.5,66.9,61.5,53.8,97,88,78,30.03,29.89,1,0,2,0.00
2013-10-19,69.5,58.8,47.8,65.3,48.7,42.3,97,72,38,30.21,30.00,6,2,11,0.00
2013-10-20,76.6,58.5,45.0,57.7,49.2,43.0,96,74,43,30.13,29.94,2,0,5,0.00
2013-10-21,81.8,67.5,57.1,70.5,63.6,53.4,97,88,65,30.07,29.91,3,0,7,0.06
2013-10-22,76.3,62.9,51.4,58.4,49.3,40.2,87,65,30,30.18,30.07,4,2,9,0.00
2013-10-23,83.0,63.2,47.4,53.2,47.2,43.1,89,61,28,30.22,30.12,2,0,5,0.00
2013-10-24,81.9,65.3,52.6,57.5,52.4,46.8,85,66,37,30.26,30.15,2,0,4,0.00
2013-10-25,81.2,66.6,53.7,65.2,60.0,52.6,99,81,55,30.33,30.20,2,0,3,0.00
2013-10-26,81.8,70.8,64.3,69.2,65.2,62.8,96,84,60,30.23,30.07,2,0,5,0.01
2013-10-27,77.4,69.9,63.4,71.2,67.0,62.5,98,91,78,30.11,30.00,2,0,7,0.01
2013-10-28,83.5,74.3,67.6,71.9,68.7,64.9,98,84,65,30.09,29.97,2,1,5,0.00
2013-10-29,84.0,76.0,70.8,73.4,70.5,68.0,95,84,64,30.08,29.95,2,1,4,0.00
2013-10-30,83.8,77.2,73.7,77.1,74.4,70.6,98,91,77,30.03,29.80,2,1,4,0.15
2013-10-31,82.4,72.6,54.5,74.7,61.1,42.6,99,73,25,29.90,29.78,7,2,11,0.12
2013-11-1,85.0,66.1,50.2,62.9,49.1,39.5,89,59,24,30.08,29.85,5,2,8,0.00
2013-11-2,74.3,63.2,52.1,47.2,42.5,35.7,70,49,27,30.32,30.09,6,2,10,0.00
2013-11-3,72.7,58.2,44.7,55.9,44.6,39.4,86,64,31,30.25,30.05,2,0,5,0.00
2013-11-4,71.0,64.0,59.3,64.7,60.1,55.3,96,87,74,30.09,29.97,1,0,3,0.02
2013-11-5,80.0,71.6,64.5,70.7,67.9,63.3,99,89,71,30.03,29.90,2,0,5,0.00
2013-11-6,79.5,65.9,56.7,73.2,60.0,44.4,96,82,63,30.33,29.98,6,2,12,0.34
2013-11-7,64.5,55.8,49.0,45.6,41.7,35.5,74,60,38,30.48,30.32,4,2,9,0.00
2013-11-8,66.7,58.0,50.8,51.0,45.8,39.3,80,65,42,30.41,30.20,2,0,5,0.00
2013-11-9,71.2,62.0,55.1,61.8,56.8,49.0,95,83,70,30.23,30.14,1,0,3,0.13
2013-11-10,68.1,64.5,62.7,61.7,60.5,58.9,93,87,74,30.32,30.19,2,0,2,0.00
2013-11-11,78.8,65.5,58.0,61.0,57.7,54.3,95,77,52,30.30,30.17,2,0,3,0.00
2013-11-12,64.9,57.0,45.8,57.5,49.6,29.2,91,77,52,30.65,30.25,6,2,10,0.00
2013-11-13,60.1,46.9,35.1,35.3,31.5,28.1,86,57,34,30.68,30.45,3,1,7,0.00
2013-11-14,65.0,48.5,32.6,51.9,38.8,29.5,90,72,40,30.45,30.10,2,0,4,0.00
2013-11-15,80.0,62.7,49.0,62.2,56.4,47.6,98,81,54,30.10,29.90,3,0,4,0.00
2013-11-16,80.9,72.8,61.2,73.5,68.9,59.9,98,88,72,29.95,29.76,3,1,7,0.00
2013-11-17,91.4,77.0,68.0,74.1,71.6,66.6,96,85,53,29.94,29.79,2,0,5,0.00
2013-11-18,79.0,70.3,63.1,71.2,66.1,58.7,98,87,72,30.11,29.94,3,1,6,0.00
2013-11-19,71.9,64.4,56.0,63.0,54.6,48.5,88,71,55,30.15,30.01,2,0,4,0.00
2013-11-20,74.9,66.8,60.5,69.3,62.4,56.0,97,86,73,30.03,29.90,1,0,4,0.00
2013-11-21,82.6,74.4,70.1,74.7,72.4,69.2,99,94,76,30.06,29.94,1,0,2,0.06
2013-11-22,73.9,47.4,37.2,73.3,45.9,35.0,99,94,88,30.41,30.05,6,4,12,0.33
2013-11-23,43.4,40.4,37.6,41.7,38.5,35.7,96,93,88,30.50,30.38,6,4,14,0.05
2013-11-24,43.6,39.8,35.9,41.9,37.5,34.9,97,92,78,30.52,30.37,4,2,12,0.45
2013-11-25,42.7,39.3,35.9,41.6,38.1,35.1,98,95,89,30.39,30.13,5,2,8,0.50
2013-11-26,52.5,44.9,37.7,39.9,36.8,31.8,90,74,57,30.42,30.17,6,2,12,0.00
2013-11-27,43.2,40.1,36.2,32.8,30.9,28.4,74,70,64,30.53,30.41,4,2,9,0.00
2013-11-28,56.7,42.7,32.3,32.0,29.2,25.8,88,62,32,30.51,30.40,2,0,3,0.00
2013-11-29,62.3,48.1,32.6,52.0,43.8,29.2,98,86,68,30.56,30.40,2,0,4,0.00
2013-11-30,67.5,56.8,48.9,59.3,52.3,45.3,96,85,73,30.43,30.22,1,0,2,0.00
2013-12-1,70.6,60.9,55.2,61.8,57.6,53.8,98,89,72,30.23,29.99,3,0,7,0.00
2013-12-2,79.6,64.7,56.5,60.6,57.2,53.6,95,79,48,29.99,29.71,3,1,5,0.00
2013-12-3,83.4,64.9,55.9,60.9,52.8,47.2,92,69,29,29.75,29.64,2,0,5,0.00
2013-12-4,74.5,61.8,53.1,66.8,59.4,50.8,99,92,75,29.82,29.70,1,0,2,0.00
2013-12-5,66.5,47.6,33.4,66.2,43.5,28.7,100,85,71,30.10,29.81,8,3,12,0.01
2013-12-6,39.0,33.0,29.1,33.0,29.0,23.7,95,85,75,30.48,30.07,6,4,12,0.03
2013-12-7,32.6,29.2,26.3,26.2,23.5,20.1,89,79,72,30.51,30.34,6,3,9,0.00
2013-12-8,50.0,37.6,28.5,42.4,33.9,26.0,94,87,73,30.35,30.09,2,0,4,0.00
2013-12-9,41.8,39.5,34.3,40.6,38.3,31.7,98,96,90,30.42,30.12,6,2,12,0.05
2013-12-10,48.0,35.7,26.7,31.7,27.1,23.9,96,73,41,30.57,30.40,6,2,10,0.00
2013-12-11,53.6,39.1,27.8,35.9,31.9,24.8,90,76,51,30.59,30.40,2,0,4,0.00
2013-12-12,51.2,42.2,34.9,38.2,34.0,29.4,81,73,59,30.65,30.37,2,1,6,0.00
2013-12-13,49.9,46.7,43.3,49.4,42.8,36.2,98,87,74,30.38,29.94,2,0,3,0.03
2013-12-14,56.7,48.3,42.4,48.2,40.5,30.5,99,76,55,30.38,29.95,7,3,13,0.01
2013-12-15,64.1,44.2,31.4,36.5,31.3,27.0,86,63,34,30.46,30.32,3,1,6,0.00
2013-12-16,67.2,46.0,31.7,37.6,32.8,28.8,90,64,31,30.39,30.25,3,0,7,0.00
2013-12-17,70.2,50.1,36.6,46.1,39.3,33.8,96,70,33,30.39,30.27,2,0,3,0.00
2013-12-18,69.8,54.6,41.3,55.8,48.2,37.0,98,81,51,30.34,30.10,2,0,6,0.00
2013-12-19,75.3,63.6,54.9,63.0,58.9,51.5,96,85,64,30.10,29.82,3,1,8,0.00
2013-12-20,73.3,67.4,62.0,67.2,64.6,60.8,97,91,79,29.87,29.62,3,0,6,0.00
2013-12-21,70.9,61.3,44.5,67.2,54.2,40.1,99,81,34,29.86,29.54,6,1,11,0.46
2013-12-22,56.1,47.0,39.5,44.8,38.7,30.5,94,74,53,30.40,29.87,5,2,12,0.00
2013-12-23,58.1,41.8,30.9,33.3,29.4,25.0,87,65,33,30.59,30.40,3,1,6,0.00
2013-12-24,59.4,41.5,28.9,35.8,30.2,26.8,94,68,30,30.59,30.33,2,0,6,0.00
2013-12-25,55.7,46.8,36.3,49.1,43.1,32.0,97,87,77,30.43,30.29,2,0,4,0.00
2013-12-26,51.5,46.7,42.7,45.5,40.9,36.4,96,80,71,30.48,30.36,4,1,7,0.01
2013-12-27,54.5,47.2,42.7,48.1,45.0,41.1,97,92,71,30.48,30.37,2,0,4,0.26
2013-12-28,56.7,48.5,41.1,48.9,44.4,39.6,97,86,65,30.36,30.08,1,0,5,0.02
2013-12-29,62.2,47.8,35.6,52.7,43.8,31.3,99,87,69,30.30,30.03,7,2,10,0.01
2013-12-30,42.8,37.6,34.5,32.7,29.5,25.9,85,73,59,30.46,30.26,5,2,9,0.00
2013-12-31,51.3,40.5,34.4,32.8,31.4,28.8,88,72,45,30.52,30.31,2,0,4,0.00
2014-1-1,57.3,47.7,34.3,50.6,41.7,31.1,92,80,69,30.30,30.07,3,0,7,0.00
2014-1-2,51.9,43.2,31.7,50.3,31.9,26.3,96,66,41,30.50,30.14,8,3,15,0.00